This demonstration page uses our WeatherBlox Daily Observations layout. Learn more.

Left ArrowRight Arrow

36.19886, -115.1175

Hourly Observations for September 29, 2022

Temp ( °F °C ) Dew Point ( °F °C ) Humidity (%) Winds ( mph kmh ) Pressure ( in mb ) Visibility ( mi km ) Precip ( " mm )
12:53 am 00:53 Clear 79 26.1 55 12.8 44 44 SSW 3 6 30.01 1016 10 16 0.00 0.00
1:53 am 01:53 Clear 78 25.6 55 12.8 45 45 SW 3 6 30.01 1016 10 16 0.00 0.00
2:53 am 02:53 Clear 75 23.9 55 12.8 50 50 Calm 30.02 1017 10 16 0.00 0.00
3:53 am 03:53 Clear 74 23.3 55 12.8 52 52 Calm 30.01 1016 10 16 0.00 0.00
4:53 am 04:53 Clear 74 23.3 54 12.2 50 50 Calm 30.01 1016 10 16 0.00 0.00
5:53 am 05:53 Clear 73 22.8 55 12.8 53 53 NNW 3 6 30.02 1017 10 16 0.00 0.00
6:53 am 06:53 Sunny 73 22.8 55 12.8 53 53 WNW 3 6 30.03 1017 10 16 0.00 0.00
7:53 am 07:53 Sunny 77 25 55 12.8 47 47 Calm 30.04 1017 10 16 0.00 0.00
8:53 am 08:53 Sunny 80 26.7 54 12.2 41 41 SE 8 13 30.04 1017 10 16 0.00 0.00
9:53 am 09:53 Sunny 83 28.3 53 11.7 36 36 E 5 7 30.04 1017 10 16 0.00 0.00
10:53 am 10:53 Sunny 86 30 53 11.7 32 32 VRB 5 7 30.02 1017 10 16 0.00 0.00
11:53 am 11:53 Sunny 90 32.2 54 12.2 30 30 undefined N/A 29.98 1015 10 16 0.00 0.00
12:53 pm 12:53 Sunny 93 33.9 54 12.2 27 27 E 12 19 29.94 1014 10 16 0.00 0.00
1:53 pm 13:53 Sunny 94 34.4 52 11.1 24 24 SSE 6 9 29.90 1013 10 16 0.00 0.00
2:53 pm 14:53 Sunny 96 35.6 51 10.6 22 22 SSE 9 15 29.86 1011 10 16 0.00 0.00
3:53 pm 15:53 Mostly Sunny 95 35 53 11.7 24 24 E 10 17 29.85 1011 10 16 0.00 0.00
4:53 pm 16:53 Sunny 96 35.6 49 9.4 20 20 ESE 5 7 29.83 1010 10 16 0.00 0.00
5:53 pm 17:53 Sunny 96 35.6 38 3.3 13 13 WSW 10 17 29.82 1010 10 16 0.00 0.00
6:53 pm 18:53 Clear 93 33.9 37 2.8 14 14 SW 8 13 29.83 1010 10 16 0.00 0.00
7:53 pm 19:53 Clear 91 32.8 36 2.2 14 14 SW 6 9 29.83 1010 10 16 0.00 0.00
8:53 pm 20:53 Clear 87 30.6 44 6.7 22 22 S 9 15 29.85 1011 10 16 0.00 0.00
9:53 pm 21:53 Clear 86 30 44 6.7 23 23 S 6 9 29.85 1011 10 16 0.00 0.00
10:53 pm 22:53 Clear 84 28.9 48 8.9 29 29 SSW 7 11 29.85 1011 10 16 0.00 0.00
11:53 pm 23:53 Clear 83 28.3 51 10.6 33 33 SW 3 6 29.85 1011 10 16 0.00 0.00

Powered by AerisWeather